Paducah, KY

1:06 AM CDT on April 27, 2017 (GMT -0500)
Barkley Regional

Weather History for KPAH - February, 2012

Change the Weather History Date:

Thursday, February 9, 2012

  Actual Average Record
Temperature  
Mean Temperature 35 °F 38 °F  
Max Temperature 38 °F 47 °F 72 °F (1965)
Min Temperature 32 °F 28 °F -1 °F (1979)
Degree Days  
Heating Degree Days 30 27  
Month to date heating degree days 185 255  
Since 1 July heating degree days 2357 2828  
Cooling Degree Days 0 0  
Month to date cooling degree days 0 0  
Year to date cooling degree days 0 0  
Moisture  
Dew Point 26 °F    
Average Humidity 68    
Maximum Humidity 82    
Minimum Humidity 54    
Precipitation  
Precipitation 0.00 in 0.14 in 2.35 in (1965)
Month to date precipitation 1.12 1.27  
Year to date precipitation 4.67 4.95  
Snow  
Snow 0.00 in 0.10 in 2.80 in (2003)
Month to date snowfall 0.0 1.1  
Since 1 July snowfall 0.4 6.4  
Snow Depth 0.00 in    
Sea Level Pressure  
Sea Level Pressure 30.33 in    
Wind  
Wind Speed 2 mph (NW)    
Max Wind Speed 8 mph    
Max Gust Speed 9 mph    
Visibility 10 miles    
Events      
T = Trace of Precipitation, MM = Missing Value Source: NWS Daily Summary

Daily Weather History Graph

Daily Weather History Graph

Search for Another Location

Airport or City:

Trip Planner

Search our weather history database for the weather conditions in past years. The results will help you decide how hot, cold, wet, or windy it might be!

Date:

Astronomy

Feb. 09, 2012 Rise Set
Actual Time 6:50 AM CST 5:28 PM CST
Civil Twilight 6:23 AM CST 5:55 PM CST
Nautical Twilight 5:53 AM CST 6:25 PM CST
Astronomical Twilight 5:22 AM CST 6:56 PM CST
Moon 7:51 PM CST (2/9) 7:31 AM CST (2/9)
Length of Visible Light 11h 31m
Length of Day
10h 37m
Waning Gibbous, 96% of the Moon is Illuminated
Feb 9
Waning Gibbous
Feb 14
Last Quarter
Feb 21
New
Feb 29
First Quarter
Mar 8
Full

Hourly Weather History & Observations

Time (CST) Temp. Windchill Dew Point Humidity Pressure Visibility Wind Dir Wind Speed Gust Speed Precip Events Conditions
12:53 AM 34.0 °F 29.8 °F 26.1 °F 73% 30.40 in 10.0 mi NNE 4.6 mph - N/A   Overcast
1:53 AM 33.1 °F 28.7 °F 26.1 °F 75% 30.39 in 10.0 mi North 4.6 mph - N/A   Overcast
2:53 AM 33.1 °F - 27.0 °F 78% 30.37 in 10.0 mi Calm Calm - N/A   Overcast
3:53 AM 33.1 °F 28.7 °F 26.1 °F 75% 30.37 in 10.0 mi North 4.6 mph - N/A   Overcast
4:53 AM 33.1 °F - 26.1 °F 75% 30.38 in 10.0 mi Calm Calm - N/A   Overcast
5:53 AM 33.1 °F - 26.1 °F 75% 30.38 in 10.0 mi Calm Calm - N/A   Overcast
6:53 AM 32.0 °F - 26.1 °F 79% 30.38 in 10.0 mi Calm Calm - N/A   Overcast
7:53 AM 33.1 °F 30.0 °F 24.1 °F 70% 30.39 in 10.0 mi ENE 3.5 mph - N/A   Overcast
8:53 AM 35.1 °F 31.0 °F 24.1 °F 64% 30.40 in 10.0 mi East 4.6 mph - N/A   Overcast
9:53 AM 37.0 °F - 23.0 °F 57% 30.39 in 10.0 mi Calm Calm - N/A   Overcast
10:53 AM 36.0 °F - 21.9 °F 57% 30.39 in 10.0 mi Calm Calm - N/A   Overcast
11:53 AM 37.9 °F 35.5 °F 24.1 °F 57% 30.36 in 10.0 mi Variable 3.5 mph - N/A   Overcast
12:53 PM 37.0 °F - 24.1 °F 59% 30.33 in 10.0 mi Calm Calm - N/A   Overcast
1:53 PM 37.9 °F - 25.0 °F 60% 30.31 in 10.0 mi North - - N/A   Overcast
2:53 PM 37.0 °F 32.4 °F 25.0 °F 62% 30.29 in 10.0 mi West 5.8 mph - N/A   Overcast
3:53 PM 37.0 °F 33.3 °F 25.0 °F 62% 30.28 in 10.0 mi West 4.6 mph - N/A   Overcast
4:53 PM 37.0 °F 34.5 °F 25.0 °F 62% 30.27 in 10.0 mi West 3.5 mph - N/A   Overcast
5:53 PM 36.0 °F 33.3 °F 27.0 °F 70% 30.27 in 10.0 mi SW 3.5 mph - N/A   Overcast
6:53 PM 36.0 °F 33.3 °F 27.0 °F 70% 30.26 in 10.0 mi SW 3.5 mph - N/A   Overcast
7:53 PM 36.0 °F - 27.0 °F 70% 30.25 in 10.0 mi Calm Calm - N/A   Overcast
8:53 PM 36.0 °F - 28.0 °F 73% 30.25 in 10.0 mi Calm Calm - N/A   Overcast
9:53 PM 35.1 °F 32.2 °F 30.0 °F 82% 30.25 in 10.0 mi ESE 3.5 mph - N/A   Overcast
10:53 PM 35.1 °F - 28.9 °F 78% 30.23 in 10.0 mi Calm Calm - N/A   Overcast
11:53 PM 35.1 °F 31.0 °F 28.9 °F 78% 30.22 in 10.0 mi South 4.6 mph - N/A   Overcast